カタログに戻る

COSMOS 2344

運用中軍事UNKNOWN
NORAD 24827·PAYLOAD·🇷🇺 Russia

打ち上げ Jun 6, 1997 から Baikonur Cosmodrome

Loading…

次のパス (今後24時間)

TLE

最新Source: Space-Track

元期: Sep 14, 2026, 21:03 UTC

1 24827U 97028A   26257.87721634 -.00000230  00000-0 -19548-2 0  9995
2 24827  63.2982  55.3184 1093638  70.9401  69.9211 11.07945702184492

AllMySatでCOSMOS 2344をリアルタイム追跡

Download on the App Store